RH
33 34 32 37 67 65 60 63 74 86 99 100 100 98 83 70 64 54 56 45 30 29 37 44 29 27 28 28 26 27 30 35 44 41 41 47 48 42 38 41 41 46 44
34 36 38 77 90 76 66 74 100 100 100 100 96 81 70 66 69 56 41 50 78 54 29 28 28 29 28 26 26 30 32 35 43 53 64 65 72 68 67 64 54 45 46
48 50 66 94 97 89 79 96 100 100 100 91 80 73 76 58 49 61 57 34 31 42 57 34 29 26 22 23 29 32 34 44 60 75 80 82 84 75 75 64 68 57 57
74 74 84 90 95 92 97 97 97 99 88 78 68 60 62 48 40 44 57 74 78 52 31 27 22 20 21 28 30 35 54 70 72 78 87 93 86 81 77 86 79 67 66
98 94 98 98 97 93 90 98 96 84 78 77 79 59 41 55 88 89 84 70 52 32 23 18 18 20 22 28 45 66 76 77 85 93 96 91 92 84 81 74 85 80 80
96 96 95 92 90 90 91 90 84 72 66 65 77 93 94 92 78 50 36 31 29 21 18 17 16 15 18 28 42 54 86 93 94 95 93 94 89 82 77 90 94 95 100
86 83 88 85 88 89 87 78 79 81 87 91 96 82 62 67 68 36 34 28 20 18 17 15 13 17 24 29 38 56 83 90 93 95 97 88 84 76 94 98 98 100 98
87 87 78 82 84 78 77 86 94 91 96 86 88 92 86 42 36 34 28 21 21 18 16 17 21 22 23 35 77 94 92 90 91 86 84 90 98 95 97 100 98 94 91
80 68 61 71 73 84 99 99 95 97 98 96 98 64 38 35 33 26 21 20 18 17 18 20 24 26 36 93 96 100 100 92 84 81 83 97 97 89 85 91 84 97 91
62 62 83 99 100 100 97 99 98 100 100 92 41 36 35 31 25 27 26 21 21 15 14 23 29 42 87 97 96 98 97 85 86 95 82 76 71 72 75 84 91 100 100
100 100 100 100 97 99 100 100 100 84 38 38 37 35 27 26 26 26 23 23 26 26 24 28 35 62 100 100 98 96 87 96 98 88 74 72 71 73 75 79 84 94 99
100 100 98 100 100 100 100 64 36 39 40 39 34 24 22 22 20 15 14 18 24 32 41 55 77 99 99 73 56 53 98 98 77 78 79 77 80 80 79 82 86 89 92
99 100 100 100 92 50 36 33 33 36 38 29 20 20 19 17 14 14 20 28 36 63 72 92 83 69 49 44 49 62 75 80 82 82 83 83 86 86 83 86 85 84 86
100 99 92 47 36 33 31 32 38 37 24 20 20 18 15 14 19 26 32 42 60 74 76 60 58 52 50 57 71 77 80 84 89 92 90 88 86 90 88 89 89 92 93
98 64 42 36 32 30 33 40 34 23 20 19 18 16 18 23 40 74 75 82 92 81 73 47 43 44 56 74 77 78 80 84 86 88 91 91 92 92 88 86 88 91 95
52 43 35 28 28 32 40 32 22 20 20 18 16 21 44 52 69 48 42 53 47 59 52 53 51 66 81 83 82 82 84 85 88 92 92 94 94 93 92 88 95 97 97
51 37 25 24 31 41 26 21 21 21 20 20 23 29 34 37 42 42 41 41 46 53 55 57 76 88 88 88 88 89 86 87 90 92 94 95 96 96 97 93 95 97 96
34 24 25 38 39 24 21 21 20 19 17 18 23 27 33 40 46 50 52 47 45 54 61 80 88 90 92 91 91 92 92 90 92 93 97 98 98 98 95 97 98 100 98
24 28 42 34 23 21 21 20 19 18 18 21 27 35 40 41 52 58 55 52 57 60 74 87 90 93 92 92 94 94 95 91 96 99 96 97 97 98 95 98 99 98 100
32 43 31 23 22 22 20 19 17 17 22 29 35 40 42 42 49 51 52 53 66 69 86 87 89 92 94 95 94 95 93 92 95 97 97 92 95 97 99 100 99 100 97
44 30 23 22 22 21 19 16 17 24 29 35 41 48 62 68 60 56 50 59 67 81 89 89 90 92 95 96 96 95 92 92 95 98 97 90 94 97 100 99 98 96 96
30 24 22 22 22 19 15 18 24 29 35 40 45 52 56 59 58 55 55 67 79 92 95 93 91 94 98 99 98 97 91 95 95 98 95 95 98 98 98 100 99 96 97
25 22 23 23 19 14 18 23 29 35 42 50 51 52 55 56 56 54 63 70 87 91 94 95 94 93 96 99 100 96 97 97 99 100 94 96 95 97 97 99 100 100 97
23 23 23 20 14 16 21 28 35 41 46 49 51 54 56 55 55 61 65 83 88 91 95 95 95 96 98 98 95 92 99 98 96 96 99 98 98 96 97 100 100 100 98
24 24 22 14 15 19 27 33 38 42 46 47 50 52 55 53 55 60 78 85 89 91 91 94 96 96 98 98 94 94 97 98 95 95 96 94 97 97 98 98 97 98 93
25 24 14 14 17 24 29 35 39 43 44 46 50 52 51 50 51 63 83 86 89 90 92 93 95 97 99 99 95 96 97 91 93 94 94 98 96 95 96 98 98 100 97
Wind_Speed
29 30 30 32 37 39 37 37 35 34 35 34 31 30 29 27 24 20 17 13 11 10 10 14 14 15 16 16 17 19 21 23 29 34 33 31 33 33 34 33 33 29 31
24 27 29 30 36 35 32 33 31 32 33 32 30 29 28 24 21 17 14 11 12 10 11 14 15 16 16 18 19 21 22 23 28 33 32 34 33 34 35 37 31 33 33
26 24 25 28 29 28 28 27 27 30 32 32 31 29 25 21 18 13 9 7 5 10 15 18 17 17 18 20 21 22 24 25 25 29 34 32 34 35 38 37 39 37 35
24 25 26 27 26 23 21 24 27 31 33 31 27 26 22 20 16 11 7 8 12 13 15 19 18 19 19 20 21 22 22 24 26 29 30 33 35 36 38 41 40 38 36
24 25 26 26 25 24 25 28 29 31 32 29 25 21 19 15 11 9 11 8 10 15 16 17 18 18 19 19 20 20 22 24 25 27 30 34 37 40 41 38 39 37 38
19 22 24 25 26 26 27 28 30 31 28 26 23 19 15 9 3 3 5 10 13 13 14 17 18 20 21 20 19 20 19 21 25 28 31 34 39 39 37 34 34 37 40
21 23 22 24 25 26 26 28 27 25 23 20 16 13 10 6 4 9 7 9 11 13 15 18 19 19 20 22 21 18 18 21 23 27 32 35 36 32 30 33 34 36 38
18 22 23 20 20 22 26 26 25 22 18 16 12 8 2 2 5 7 7 8 11 14 16 17 18 20 21 20 18 20 22 24 26 30 32 32 29 29 30 33 36 36 38
16 18 18 18 27 26 25 26 21 19 16 10 6 3 3 3 6 8 9 11 13 15 17 18 21 23 22 18 19 23 27 30 30 28 25 25 26 28 28 28 30 32 39
23 21 19 22 26 26 22 21 18 11 8 6 5 4 2 4 7 9 12 16 18 20 20 22 23 22 18 17 21 25 29 30 24 27 29 29 26 25 23 24 28 31 33
21 26 28 27 23 20 18 14 12 10 7 6 3 2 2 5 7 10 13 16 19 22 23 24 22 19 17 20 20 23 23 21 26 28 27 27 26 25 23 26 26 28 31
25 25 24 20 17 15 12 12 11 8 6 3 2 3 5 8 11 13 15 16 18 21 21 22 21 20 21 21 20 19 19 20 22 24 26 27 27 26 27 27 25 26 27
22 21 20 18 16 15 11 9 6 4 2 3 4 6 8 11 13 14 16 17 18 18 20 19 21 23 22 20 18 16 17 18 21 24 26 27 28 28 27 29 27 27 29
19 17 16 16 15 12 8 6 3 2 2 4 6 9 10 11 13 13 15 17 18 20 22 23 22 21 18 17 15 13 16 19 22 24 26 27 27 29 30 30 32 31 34
16 15 15 12 10 7 5 3 1 2 5 7 9 10 11 13 13 13 15 18 17 19 20 20 19 17 16 15 15 16 19 20 22 23 25 28 31 32 32 30 31 32 33
15 13 11 8 6 3 1 2 3 6 8 10 11 12 13 13 12 16 18 17 19 18 19 18 17 15 16 17 20 22 21 22 23 23 26 29 32 32 33 32 31 30 33
8 9 7 5 3 2 1 2 4 6 7 8 9 10 12 14 15 18 18 18 18 17 16 15 15 15 16 18 20 22 24 23 22 23 27 30 32 33 32 32 32 32 34
9 8 6 4 2 1 1 4 6 8 9 10 11 12 13 14 15 16 17 17 16 13 13 13 14 16 18 20 20 23 24 23 22 25 29 31 33 33 34 33 33 34 35
8 6 4 3 1 2 4 7 9 11 12 12 13 12 13 15 15 15 16 16 15 14 13 13 14 16 19 20 21 23 24 21 24 27 29 33 32 33 34 34 34 32 33
7 5 3 1 2 4 7 9 11 11 12 14 15 15 15 16 15 15 16 15 13 12 13 14 15 18 20 20 22 23 23 21 25 27 32 33 33 32 33 33 33 34 35
5 3 2 2 4 7 9 11 11 12 13 14 15 15 13 14 15 15 16 13 12 13 14 16 17 18 20 19 22 24 22 23 26 29 32 33 35 34 31 31 33 33 34
4 2 2 4 7 9 10 11 12 13 14 14 14 14 13 13 13 14 12 10 11 12 15 18 19 19 19 20 23 24 20 24 26 31 31 32 34 35 33 33 32 32 34
3 2 4 6 8 9 10 11 12 13 13 14 14 13 13 13 13 11 9 9 10 13 15 17 18 19 17 19 22 19 19 24 26 28 31 32 33 32 30 33 32 34 33
3 4 6 8 8 10 11 12 12 13 13 13 13 13 12 12 11 9 9 9 11 14 15 16 18 19 18 20 22 14 17 21 25 28 29 31 29 29 29 31 32 34 32
4 6 7 8 9 10 11 12 12 13 13 13 13 12 11 11 10 9 8 9 12 14 14 16 18 18 19 20 20 14 15 20 23 26 30 29 28 27 28 29 32 34 30
5 7 8 8 10 11 12 12 12 12 12 12 12 12 12 12 11 9 9 10 13 15 16 17 18 18 18 19 18 13 16 21 23 27 32 29 26 27 28 29 29 31 31
Wind_Direction
257 245 254 250 231 223 229 232 229 226 225 215 211 211 209 205 204 202 207 216 227 243 267 277 280 282 286 290 293 292 292 293 292 297 302 308 309 310 312 312 315 312 310
251 242 250 233 214 213 222 225 221 217 210 209 206 204 201 198 203 197 200 222 262 283 289 286 283 285 290 293 293 293 294 296 298 302 307 312 315 318 317 318 318 318 317
244 238 234 212 207 207 216 212 208 206 202 198 198 195 193 187 188 194 206 229 257 281 294 280 283 287 290 291 293 296 298 299 301 302 305 310 312 317 318 320 320 319 318
226 222 212 205 204 204 204 199 202 198 192 189 186 180 182 179 183 188 210 259 284 292 277 278 285 287 290 292 297 299 299 299 300 301 305 307 311 315 319 317 317 318 319
206 202 196 193 190 189 191 193 191 186 182 180 174 168 176 181 198 226 251 277 281 270 274 281 285 289 293 293 295 296 296 299 302 304 303 307 309 315 315 316 315 320 318
185 176 175 175 175 178 179 180 177 172 164 164 164 175 186 196 221 260 270 253 260 270 281 287 292 295 295 294 292 291 294 299 300 300 301 303 306 309 312 314 315 316 314
162 161 160 165 171 173 167 162 156 154 157 153 163 171 170 181 223 234 245 269 279 289 294 297 300 303 303 302 299 298 295 293 291 294 296 301 304 309 313 312 314 307 300
158 153 163 165 156 147 149 149 148 145 143 164 166 179 184 161 241 276 287 290 298 303 305 308 309 310 310 309 311 305 301 298 297 300 303 305 307 312 308 301 298 298 298
149 147 143 144 142 145 147 142 136 149 158 160 147 135 188 255 287 291 295 303 306 310 312 312 314 316 316 317 310 306 305 304 306 305 299 299 300 302 302 300 302 305 305
138 135 145 149 146 142 142 149 147 145 144 108 163 173 240 285 294 311 318 317 315 313 314 317 317 317 317 319 308 305 301 304 314 308 307 306 306 306 304 304 308 306 308
140 138 140 136 138 139 144 141 138 100 125 163 204 242 274 277 297 310 308 305 309 309 315 316 318 321 320 309 307 297 303 314 298 300 307 310 311 310 309 310 308 306 305
132 129 127 133 137 139 132 112 112 139 177 187 267 293 300 307 306 304 303 304 308 313 319 321 326 325 314 318 315 314 310 304 310 313 314 317 319 319 315 314 312 307 302
130 129 132 133 119 108 114 123 144 170 230 267 283 299 301 305 308 309 309 314 322 324 325 323 315 320 321 319 317 318 316 315 316 318 321 323 322 322 322 322 319 315 310
130 127 122 124 128 133 138 145 167 202 251 292 308 314 315 314 315 315 322 328 333 329 325 325 323 320 321 323 322 324 325 328 330 327 324 325 328 330 329 329 324 323 318
125 124 129 131 133 137 147 146 123 310 311 318 318 320 321 326 334 334 334 334 330 322 320 324 326 328 332 333 335 335 335 335 333 332 332 334 335 334 331 330 327 325 321
143 141 141 143 138 132 164 277 294 315 322 326 328 334 330 329 320 324 326 326 325 326 325 327 332 336 337 339 339 337 339 338 338 338 340 340 337 336 334 335 333 328 325
146 144 149 158 177 197 243 324 321 323 325 325 319 314 312 315 319 321 326 326 328 324 324 331 336 339 340 340 338 338 338 340 340 342 341 341 341 339 336 335 335 332 329
165 163 169 174 164 144 321 318 319 321 324 324 321 321 322 322 321 325 325 327 325 328 334 337 340 341 341 339 337 337 339 341 342 342 344 342 341 339 338 338 335 332 330
170 172 165 160 158 316 322 324 327 329 327 327 328 328 325 324 329 327 327 329 330 335 337 340 340 338 339 337 336 337 339 341 343 342 343 341 341 342 339 338 336 335 333
172 167 159 174 308 322 325 329 329 329 332 332 332 334 330 328 330 330 334 334 334 336 338 338 338 338 338 336 337 338 339 343 344 346 343 342 345 344 341 338 338 335 335
174 173 187 296 318 325 329 330 333 337 336 335 334 334 333 328 332 331 333 336 339 339 338 337 338 336 336 336 337 339 340 344 344 344 342 346 349 345 343 340 339 340 339
189 208 292 313 321 329 332 336 338 336 334 334 334 336 333 331 330 331 334 339 341 340 338 336 335 335 335 338 338 337 342 346 345 344 343 346 346 346 344 345 343 343 341
212 273 305 318 329 332 336 337 334 335 336 338 339 337 334 333 333 336 340 342 343 344 340 335 332 333 334 337 337 338 344 346 346 343 345 344 343 339 341 342 344 345 342
251 292 311 325 329 333 335 333 335 339 339 341 339 336 335 339 339 341 341 343 344 344 338 334 334 336 335 336 340 343 349 350 346 348 343 335 336 340 341 345 347 345 343
272 299 319 325 328 330 330 332 336 338 339 339 336 336 343 345 338 334 337 341 342 340 339 339 337 336 337 337 339 338 346 347 343 341 338 333 332 334 339 343 346 342 347
287 309 316 321 327 327 327 332 334 330 333 333 333 336 343 338 330 329 332 332 336 341 341 338 339 337 336 336 340 339 347 344 343 338 337 335 334 334 334 338 338 343 349